Zurück zum Katalog

THORAD AGENA D DEB

AktivLEO
NORAD 4211·DEBRIS·🇺🇸 United States

Gestartet Sep 30, 1969 von Vandenberg Space Force Base

Loading…

Nächste Überflüge (nächste 24 Stunden)

TLE

AktuellSource: Space-Track

Epoche: Sep 14, 2026, 07:09 UTC

1 04211U 69082CA  26257.29819378  .00000099  00000-0  84169-4 0  9992
2 04211  70.0714 203.3888 0034125 226.3885 133.4397 14.11487326925609

Verfolge THORAD AGENA D DEB in Echtzeit mit AllMySat

Download on the App Store